| time (UTC) | temp F | wind direction | speed MPH | gust MPH | rain 1hr in | rain 24hr in | rain mn in | humidity % | barometer mb |
| 20260510060027 | 49 | 252 | 0.0 | 3.0 | 0.00 | 0.00 | 0.00 | 73 | 1016.4 |
| 20260510054526 | 50 | 86 | 1.0 | 2.0 | 0.00 | 0.00 | 0.00 | 72 | 1016.3 |
| 20260510053027 | 52 | 114 | 0.0 | 3.0 | 0.00 | 0.00 | 0.00 | 66 | 1016.4 |
| 20260510051525 | 50 | 155 | 2.0 | 4.0 | 0.00 | 0.00 | 0.00 | 72 | 1016.3 |
| 20260510050025 | 51 | 129 | 2.0 | 4.0 | 0.00 | 0.00 | 0.00 | 71 | 1016.3 |
| 20260510044531 | 53 | 139 | 0.0 | 2.0 | 0.00 | 0.00 | 0.00 | 67 | 1016.4 |
| 20260510041522 | 56 | 98 | 0.0 | 2.0 | 0.00 | 0.00 | 0.00 | 62 | 1016.3 |
| 20260510040022 | 57 | 195 | 0.0 | 2.0 | 0.00 | 0.00 | 0.00 | 61 | 1015.9 |
| 20260510034520 | 61 | 265 | 1.0 | 6.0 | 0.00 | 0.00 | 0.00 | 50 | 1015.6 |
| 20260510033020 | 59 | 127 | 0.0 | 3.0 | 0.00 | 0.00 | 0.00 | 61 | 1015.5 |
| 20260510031520 | 61 | 89 | 2.0 | 3.0 | 0.00 | 0.00 | 0.00 | 59 | 1015.3 |
| 20260510030019 | 64 | 141 | 0.0 | 3.0 | 0.00 | 0.00 | 0.00 | 53 | 1015.0 |
| 20260510024519 | 67 | 224 | 0.0 | 1.0 | 0.00 | 0.00 | 0.00 | 44 | 1014.9 |
| 20260510023017 | 69 | 224 | 0.0 | 1.0 | 0.00 | 0.00 | 0.00 | 39 | 1014.9 |
| 20260510021518 | 71 | 266 | 1.0 | 2.0 | 0.00 | 0.00 | 0.00 | 37 | 1014.9 |
| 20260510020016 | 73 | 283 | 1.0 | 3.0 | 0.00 | 0.00 | 0.00 | 34 | 1014.9 |
| 20260510014514 | 74 | 293 | 1.0 | 6.0 | 0.00 | 0.00 | 0.00 | 32 | 1014.9 |
| 20260510013013 | 74 | 323 | 4.0 | 7.0 | 0.00 | 0.00 | 0.00 | 29 | 1015.0 |
| 20260510011523 | 73 | 309 | 4.0 | 8.0 | 0.00 | 0.00 | 0.00 | 31 | 1015.2 |
| 20260510010009 | 74 | 25 | 3.0 | 7.0 | 0.00 | 0.00 | 0.00 | 29 | 1015.2 |
| 20260510004512 | 73 | 357 | 4.0 | 10.0 | 0.00 | 0.00 | 0.00 | 26 | 1015.3 |
| 20260510003008 | 74 | 320 | 4.0 | 8.0 | 0.00 | 0.00 | 0.00 | 27 | 1015.2 |
| 20260510001505 | 74 | 319 | 4.0 | 8.0 | 0.00 | 0.00 | 0.00 | 24 | 1015.3 |
| 20260510000003 | 74 | 3 | 5.0 | 11.0 | 0.00 | 0.00 | 0.00 | 26 | 1015.6 |
| 20260509234602 | 73 | 325 | 6.0 | 10.0 | 0.00 | 0.00 | 0.00 | 25 | 1015.6 |
| 20260509233058 | 73 | 54 | 4.0 | 11.0 | 0.00 | 0.00 | 0.00 | 25 | 1015.8 |
| 20260509231556 | 72 | 335 | 6.0 | 9.0 | 0.00 | 0.00 | 0.00 | 26 | 1015.9 |
| 20260509230054 | 73 | 56 | 3.0 | 7.0 | 0.00 | 0.00 | 0.00 | 26 | 1015.9 |
| 20260509224553 | 71 | 45 | 6.0 | 10.0 | 0.00 | 0.00 | 0.00 | 27 | 1016.2 |
| 20260509223059 | 72 | 354 | 4.0 | 9.0 | 0.00 | 0.00 | 0.00 | 26 | 1016.3 |
| 20260509221548 | 71 | 42 | 0.0 | 7.0 | 0.00 | 0.00 | 0.00 | 26 | 1016.4 |
| 20260509220045 | 71 | 297 | 2.0 | 7.0 | 0.00 | 0.00 | 0.00 | 26 | 1016.6 |
| 20260509214543 | 70 | 326 | 6.0 | 11.0 | 0.00 | 0.00 | 0.00 | 29 | 1016.9 |
| 20260509213042 | 70 | 232 | 1.0 | 6.0 | 0.00 | 0.00 | 0.00 | 29 | 1017.0 |
| 20260509211639 | 70 | 81 | 1.0 | 7.0 | 0.00 | 0.00 | 0.00 | 28 | 1017.1 |
| 20260509210044 | 69 | 311 | 2.0 | 9.0 | 0.00 | 0.00 | 0.00 | 30 | 1017.3 |
| 20260509204540 | 68 | 82 | 4.0 | 11.0 | 0.00 | 0.00 | 0.00 | 33 | 1017.5 |
| 20260509203033 | 68 | 64 | 3.0 | 12.0 | 0.00 | 0.00 | 0.00 | 34 | 1017.6 |
| 20260509201531 | 66 | 325 | 5.0 | 12.0 | 0.00 | 0.00 | 0.00 | 36 | 1017.9 |
| 20260509200027 | 66 | 86 | 4.0 | 10.0 | 0.00 | 0.00 | 0.00 | 35 | 1018.1 |
| 20260509194527 | 65 | 8 | 2.0 | 9.0 | 0.00 | 0.00 | 0.00 | 35 | 1018.3 |
| 20260509193026 | 65 | 32 | 4.0 | 11.0 | 0.00 | 0.00 | 0.00 | 35 | 1018.5 |
| 20260509191525 | 64 | 49 | 3.0 | 11.0 | 0.00 | 0.00 | 0.00 | 40 | 1018.7 |
| 20260509190017 | 64 | 53 | 4.0 | 11.0 | 0.00 | 0.00 | 0.00 | 42 | 1019.0 |
| 20260509184524 | 63 | 39 | 8.0 | 11.0 | 0.00 | 0.00 | 0.00 | 44 | 1019.2 |
| 20260509183014 | 62 | 12 | 7.0 | 14.0 | 0.00 | 0.00 | 0.00 | 44 | 1019.3 |
| 20260509181511 | 62 | 8 | 6.0 | 13.0 | 0.00 | 0.00 | 0.00 | 44 | 1019.4 |
| 20260509180013 | 61 | 20 | 5.0 | 10.0 | 0.00 | 0.00 | 0.00 | 44 | 1019.6 |
| 20260509174507 | 59 | 11 | 3.0 | 9.0 | 0.00 | 0.00 | 0.00 | 52 | 1019.5 |
| 20260509173005 | 58 | 340 | 2.0 | 7.0 | 0.00 | 0.00 | 0.00 | 51 | 1019.7 |
| 20260509171503 | 58 | 305 | 0.0 | 5.0 | 0.00 | 0.00 | 0.00 | 52 | 1019.8 |
| 20260509170002 | 57 | 258 | 1.0 | 7.0 | 0.00 | 0.00 | 0.00 | 54 | 1020.0 |
| 20260509164559 | 56 | 293 | 3.0 | 5.0 | 0.00 | 0.00 | 0.00 | 58 | 1020.1 |
| 20260509163056 | 54 | 317 | 1.0 | 4.0 | 0.00 | 0.00 | 0.00 | 61 | 1020.2 |
| 20260509161656 | 52 | 301 | 0.0 | 7.0 | 0.00 | 0.00 | 0.00 | 64 | 1020.2 |
| 20260509160056 | 51 | 31 | 3.0 | 7.0 | 0.00 | 0.00 | 0.00 | 65 | 1020.4 |
| 20260509154554 | 53 | 98 | 0.0 | 2.0 | 0.00 | 0.00 | 0.00 | 61 | 1020.5 |
| 20260509153054 | 50 | 301 | 1.0 | 3.0 | 0.00 | 0.00 | 0.00 | 67 | 1020.5 |
| 20260509151557 | 48 | 88 | 2.0 | 6.0 | 0.00 | 0.00 | 0.00 | 70 | 1020.6 |
| 20260509144605 | 44 | 97 | 1.0 | 5.0 | 0.00 | 0.00 | 0.00 | 75 | 1021.0 |
| 20260509143113 | 43 | 100 | 2.0 | 5.0 | 0.00 | 0.00 | 0.00 | 77 | 1021.0 |
| 20260509141549 | 42 | 101 | 2.0 | 5.0 | 0.00 | 0.00 | 0.00 | 77 | 1021.1 |
| 20260509140057 | 40 | 106 | 2.0 | 5.0 | 0.00 | 0.00 | 0.00 | 78 | 1021.2 |
| 20260509134605 | 41 | 108 | 1.0 | 2.0 | 0.00 | 0.00 | 0.00 | 77 | 1021.1 |
| 20260509133048 | 39 | 13 | 0.0 | 2.0 | 0.00 | 0.00 | 0.00 | 81 | 1020.8 |
| 20260509131545 | 37 | 132 | 0.0 | 1.0 | 0.00 | 0.00 | 0.00 | 84 | 1020.8 |
| 20260509130054 | 35 | 113 | 1.0 | 3.0 | 0.00 | 0.00 | 0.00 | 87 | 1020.6 |
| 20260509124543 | 35 | 92 | 2.0 | 5.0 | 0.00 | 0.00 | 0.00 | 87 | 1020.5 |
| 20260509123040 | 36 | 113 | 0.0 | 2.0 | 0.00 | 0.00 | 0.00 | 84 | 1020.4 |
| 20260509121543 | 37 | 131 | 1.0 | 3.0 | 0.00 | 0.00 | 0.00 | 85 | 1020.2 |
| 20260509120034 | 36 | 127 | 1.0 | 3.0 | 0.00 | 0.00 | 0.00 | 85 | 1020.1 |
| 20260509114536 | 37 | 200 | 0.0 | 3.0 | 0.00 | 0.00 | 0.00 | 85 | 1020.0 |
| 20260509113034 | 37 | 122 | 0.0 | 2.0 | 0.00 | 0.00 | 0.00 | 84 | 1020.0 |
| 20260509111524 | 37 | 113 | 0.0 | 2.0 | 0.00 | 0.00 | 0.00 | 83 | 1019.8 |
| 20260509110020 | 38 | 210 | 0.0 | 1.0 | 0.00 | 0.00 | 0.00 | 82 | 1019.9 |
| 20260509104532 | 39 | 104 | 1.0 | 3.0 | 0.00 | 0.00 | 0.00 | 80 | 1019.7 |
| 20260509103013 | 40 | 120 | 1.0 | 3.0 | 0.00 | 0.00 | 0.00 | 78 | 1019.5 |
| 20260509101509 | 42 | 235 | 1.0 | 2.0 | 0.00 | 0.00 | 0.00 | 75 | 1019.5 |
| 20260509100007 | 44 | 245 | 1.0 | 2.0 | 0.00 | 0.00 | 0.00 | 74 | 1019.4 |
| 20260509094515 | 43 | 310 | 0.0 | 2.0 | 0.00 | 0.00 | 0.00 | 72 | 1019.3 |
| 20260509093001 | 46 | 284 | 1.0 | 4.0 | 0.00 | 0.00 | 0.00 | 67 | 1019.2 |
| 20260509091605 | 47 | 250 | 2.0 | 4.0 | 0.00 | 0.00 | 0.00 | 66 | 1019.1 |
| 20260509090104 | 47 | 237 | 1.0 | 3.0 | 0.00 | 0.00 | 0.00 | 66 | 1019.2 |
| 20260509084554 | 48 | 294 | 1.0 | 4.0 | 0.00 | 0.00 | 0.00 | 64 | 1019.1 |
| 20260509083051 | 48 | 283 | 1.0 | 3.0 | 0.00 | 0.00 | 0.00 | 63 | 1019.0 |
| 20260509081548 | 50 | 297 | 1.0 | 2.0 | 0.00 | 0.00 | 0.00 | 60 | 1018.9 |
| 20260509080045 | 51 | 283 | 1.0 | 6.0 | 0.00 | 0.00 | 0.00 | 58 | 1018.8 |
| 20260509074642 | 51 | 284 | 0.0 | 3.0 | 0.00 | 0.00 | 0.00 | 57 | 1018.8 |
| 20260509073038 | 53 | 286 | 0.0 | 3.0 | 0.00 | 0.00 | 0.00 | 55 | 1018.8 |
| 20260509071540 | 53 | 341 | 1.0 | 6.0 | 0.00 | 0.00 | 0.00 | 55 | 1018.6 |
| 20260509070032 | 53 | 269 | 1.0 | 6.0 | 0.00 | 0.00 | 0.00 | 53 | 1018.3 |
| 20260509064540 | 53 | 315 | 2.0 | 4.0 | 0.00 | 0.00 | 0.00 | 53 | 1018.2 |
| 20260509063030 | 54 | 293 | 1.0 | 6.0 | 0.00 | 0.00 | 0.00 | 50 | 1018.2 |
| 20260509061531 | 56 | 274 | 4.0 | 9.0 | 0.00 | 0.00 | 0.00 | 48 | 1018.2 |